Vertical_Velocity
1 4 -1 3 -1 -2 -3 -2 -2 -1 -3 1 -3 -4 -0 3 -2 1 -5 -3 -4 -5 -1 -1 -2 1 1 1 -0 -6 -4 3 1 3 -3 -2 -2 2 0 0 -2 1 1
1 -7 1 -3 -2 -6 6 -3 4 1 -6 0 -5 -7 -4 0 -4 0 -4 -5 -4 -5 -3 -2 -2 -2 1 1 4 -1 -1 3 -7 -5 3 2 0 -4 -3 0 2 -2 4
-8 4 -3 4 -3 3 3 -1 2 1 -5 -3 -7 -9 -4 -0 1 -3 -1 -7 -5 -0 -4 -3 -3 -3 -2 -2 -2 -2 -3 -4 -4 -2 4 -1 -1 2 5 -4 -5 -1 -3
1 4 -0 1 1 -0 -1 -6 -1 -4 -6 -5 -4 -4 -5 -6 -3 -4 -5 -0 -6 -3 -3 -2 -3 -2 -3 -2 -1 -1 -2 -0 2 -3 -1 -6 1 4 -1 -2 -0 -1 -4
4 0 -1 -1 4 -2 -2 -4 -2 -4 1 -3 -3 0 -3 -2 -5 -4 -2 -3 -2 -4 -3 -1 -1 -2 -2 -2 -1 -2 -4 -7 -5 -9 -5 3 -1 3 7 1 -2 -8 0
3 3 -4 0 1 -7 -5 -1 -4 2 -1 -0 -1 -2 -2 -3 -2 -4 -5 -2 -0 -2 -2 -2 -2 -1 -1 -3 -5 -3 2 2 -4 -6 -5 -5 -9 -4 9 2 10 4 -12
-0 -1 -3 -3 -4 -2 -1 -4 -3 0 0 -4 -4 0 -3 -2 -1 -0 -2 -3 -5 -2 -3 -2 -1 -2 -3 -3 -3 -4 -7 -5 -4 -5 -4 -4 -4 -9 -11 2 1 -2 7
-2 -9 -2 -4 2 -1 -2 0 2 2 0 -3 -2 -1 -3 2 -1 -2 -0 3 1 1 -7 -7 -5 -6 -6 -6 -9 -9 -4 -2 -3 -8 -9 -13 -16 -19 -19 -16 -2 -1 -2
-4 -3 -1 -0 1 -1 -3 -1 -2 -0 -3 -1 -1 -5 -5 7 -3 2 -2 1 -1 -3 -4 -2 -5 -10 -12 -14 -9 -10 -11 -12 -11 -5 -3 -7 -9 -9 -8 -16 -22 -2 -3
-2 0 -1 -0 -1 -2 -0 -3 -4 -3 4 4 4 1 4 -3 -4 -3 10 6 4 8 6 3 2 1 5 5 3 -2 -1 -4 -6 -7 -12 -9 -2 -1 -4 -4 -4 -12 1
-0 1 3 0 -1 -2 -2 -0 0 -0 -0 1 1 1 1 -1 0 -3 1 5 1 3 0 2 -0 -1 -4 2 -2 -9 -9 -11 -12 -12 -6 3 0 2 -3 -3 -4 -6 -7
-1 0 -0 0 -0 2 2 2 1 1 -0 -2 -2 -2 1 1 2 0 -3 -1 -3 11 1 -3 -2 -5 -1 -3 -4 -4 -5 -5 -3 -2 -7 -5 -7 -1 2 -2 -5 -5 -4
2 2 1 -1 -3 -1 -1 0 -0 -0 -1 1 -1 -0 0 -1 0 0 -4 -3 -7 5 1 5 -1 -1 -3 1 -2 -7 -3 1 1 -3 -5 -4 -5 -3 -0 0 -2 -4 -6
-0 -1 2 0 26 1 1 -3 -1 -1 -2 -2 5 3 2 -0 -1 -2 -4 -4 -3 -1 -0 -5 -2 4 1 -5 -5 -2 -0 -3 -3 -2 -4 -3 -4 -3 -1 -1 -2 -3 -3
0 12 -4 3 -5 -4 3 2 1 3 3 0 -3 -2 -0 -0 2 -1 -2 -3 -5 -6 -2 6 1 2 -0 1 2 -1 -3 -2 -3 -3 -4 -2 -3 -3 -0 -0 -1 -3 -3
4 1 1 -3 1 2 0 -1 -3 -5 -6 -5 -1 1 2 3 4 2 -2 -1 -3 -5 -6 0 -2 -3 -3 -3 2 4 2 -3 -1 -1 -1 -2 -1 -2 -2 -1 -0 1 -1
-2 -4 0 3 -0 -5 -2 -2 -4 -1 -1 1 2 2 1 2 1 -3 -4 1 2 -0 -4 3 -4 -2 2 -4 -1 0 -3 1 1 -2 -1 -1 -1 -3 -2 1 1 1 -0
3 3 -5 -7 -5 -1 -0 0 -1 3 1 3 3 0 -2 -2 -4 -1 2 1 -2 -6 -8 -1 1 1 -2 -7 -3 2 2 -4 -2 -1 -2 -1 -0 -2 -3 -1 -1 -1 1
1 0 0 1 3 4 1 2 4 4 -1 -2 -0 0 -1 -2 1 -0 -2 -4 -4 0 0 -0 -0 -3 2 -7 1 -4 1 3 -4 -4 -1 1 0 -0 -2 -5 -4 -2 -1
-0 1 2 2 2 -0 3 2 1 3 1 1 -2 -3 3 4 7 -3 -4 1 3 3 -0 -1 1 -3 -3 -3 -5 -0 5 -4 -1 -8 1 -3 -2 1 -1 -2 0 -4 -3
2 1 0 -1 1 -1 -1 0 -2 -1 -1 0 -2 -0 -3 -3 1 3 2 -1 -2 1 1 2 1 -1 -2 -2 -1 -5 3 7 -9 0 5 -8 -3 -4 -3 0 -0 -2 -2
-3 -0 -2 2 12 7 3 3 -1 2 -3 -5 -0 0 -2 -5 -3 1 -1 -2 -2 -2 3 1 0 -2 -0 -1 -2 -1 -0 -1 5 -15 6 -13 -4 5 -1 -1 -1 -0 2
-1 -1 0 1 2 -0 -2 -1 -0 -2 -2 -1 -1 -3 -3 -4 1 0 -1 -2 -1 -1 2 2 3 -4 2 -3 1 -1 -3 -1 -2 -2 10 -4 1 -4 -1 -0 1 -2 -1
1 2 3 1 -0 2 -0 -3 -3 0 0 -2 -4 -3 -3 -2 -0 1 1 0 -1 -3 1 -0 1 -2 -0 -2 -0 0 -0 -2 -4 -3 5 1 3 -4 -2 -2 0 -2 -2
3 2 -1 1 3 5 -2 -1 -1 -3 -1 -1 -4 -1 -2 -0 2 0 0 -0 -0 -2 1 -1 -0 1 -0 -1 1 4 0 1 -2 -4 -2 6 -4 1 -5 -6 -1 2 -0
4 2 7 1 -0 -1 1 0 1 1 -1 -6 -5 -3 -3 2 3 -0 2 -0 1 -1 -0 -1 -2 0 0 -0 -2 -1 1 -0 -2 -1 -10 9 -6 -3 7 -7 -6 -5 3
Height
5800 5798 5797 5796 5795 5792 5789 5790 5788 5785 5783 5779 5777 5773 5770 5767 5765 5762 5759 5756 5753 5750 5748 5745 5742 5739 5735 5734 5732 5729 5728 5728 5729 5729 5729 5729 5730 5731 5732 5732 5732 5733 5734
5796 5795 5793 5793 5791 5788 5787 5786 5782 5780 5776 5773 5769 5766 5763 5761 5758 5754 5750 5746 5743 5740 5738 5735 5732 5729 5727 5725 5724 5722 5721 5720 5718 5717 5717 5717 5718 5719 5722 5723 5723 5724 5725
5792 5790 5791 5787 5786 5784 5783 5781 5777 5774 5770 5767 5763 5759 5755 5752 5749 5745 5741 5736 5732 5730 5726 5724 5721 5719 5717 5715 5714 5713 5711 5710 5709 5708 5707 5705 5704 5704 5707 5709 5711 5712 5713
5788 5789 5786 5783 5782 5781 5778 5774 5770 5768 5763 5759 5754 5749 5745 5741 5738 5734 5728 5724 5720 5717 5714 5712 5710 5708 5706 5704 5702 5701 5699 5698 5697 5695 5694 5692 5692 5693 5690 5691 5694 5697 5700
5785 5783 5781 5779 5778 5775 5770 5767 5764 5759 5755 5750 5744 5739 5735 5730 5725 5720 5716 5712 5708 5705 5702 5700 5698 5696 5693 5691 5689 5687 5685 5683 5682 5680 5678 5677 5675 5676 5677 5676 5675 5676 5680
5779 5779 5777 5774 5772 5768 5764 5760 5754 5749 5744 5739 5734 5729 5723 5717 5712 5709 5704 5700 5696 5693 5690 5688 5685 5683 5680 5677 5673 5670 5667 5664 5662 5659 5658 5658 5656 5654 5655 5657 5659 5659 5658
5775 5774 5771 5768 5764 5759 5755 5748 5743 5739 5734 5728 5722 5717 5711 5706 5702 5697 5693 5689 5684 5681 5677 5674 5670 5666 5662 5659 5655 5652 5648 5644 5641 5638 5637 5635 5634 5634 5631 5630 5634 5635 5638
5772 5768 5762 5758 5753 5749 5744 5738 5733 5728 5722 5716 5710 5706 5701 5696 5691 5685 5681 5676 5671 5666 5660 5656 5652 5648 5644 5640 5634 5629 5625 5621 5617 5613 5609 5606 5604 5602 5604 5602 5601 5604 5609
5761 5755 5751 5747 5743 5737 5731 5726 5720 5714 5708 5704 5699 5693 5688 5684 5678 5673 5667 5662 5656 5650 5644 5639 5632 5627 5622 5617 5612 5606 5602 5597 5592 5586 5581 5576 5570 5565 5564 5567 5569 5569 5572
5750 5745 5741 5737 5731 5725 5720 5713 5707 5702 5698 5693 5687 5681 5675 5670 5665 5661 5655 5648 5642 5635 5628 5620 5613 5606 5600 5594 5589 5583 5579 5572 5565 5559 5550 5539 5530 5524 5521 5521 5526 5533 5536
5741 5736 5731 5726 5719 5712 5706 5703 5699 5694 5687 5680 5674 5668 5662 5657 5651 5645 5641 5634 5626 5617 5609 5601 5592 5585 5577 5571 5562 5555 5548 5540 5533 5524 5515 5505 5499 5492 5490 5489 5491 5496 5502
5732 5726 5720 5714 5708 5704 5698 5693 5689 5682 5675 5668 5661 5654 5648 5642 5634 5627 5622 5616 5609 5601 5590 5581 5571 5563 5555 5548 5541 5532 5521 5509 5498 5487 5482 5476 5473 5469 5466 5466 5466 5470 5475
5721 5715 5710 5704 5699 5694 5689 5682 5676 5667 5660 5653 5646 5639 5631 5623 5616 5609 5602 5597 5591 5585 5575 5563 5552 5543 5534 5525 5516 5506 5496 5483 5471 5465 5460 5458 5454 5451 5450 5450 5449 5450 5455
5711 5706 5702 5693 5692 5682 5675 5668 5661 5653 5646 5639 5632 5623 5615 5607 5599 5590 5582 5575 5568 5563 5556 5544 5534 5523 5513 5502 5492 5481 5471 5462 5455 5449 5445 5443 5440 5437 5435 5434 5434 5435 5439
5703 5697 5692 5685 5677 5669 5663 5655 5647 5639 5631 5623 5615 5608 5600 5591 5582 5572 5562 5553 5543 5541 5537 5526 5515 5505 5493 5481 5470 5459 5451 5444 5441 5435 5431 5429 5426 5424 5422 5421 5421 5422 5424
5693 5687 5680 5672 5665 5658 5650 5641 5633 5625 5617 5609 5600 5592 5583 5573 5563 5552 5541 5531 5523 5516 5515 5506 5497 5483 5472 5461 5452 5442 5435 5431 5428 5423 5418 5416 5414 5412 5409 5408 5408 5408 5410
5681 5674 5667 5660 5651 5643 5637 5629 5619 5611 5602 5594 5585 5575 5565 5554 5543 5531 5522 5513 5504 5496 5490 5485 5472 5461 5452 5441 5435 5428 5422 5419 5415 5410 5407 5403 5401 5399 5397 5396 5396 5396 5397
5669 5663 5654 5646 5638 5631 5623 5614 5606 5598 5588 5578 5568 5556 5544 5533 5522 5512 5503 5494 5484 5475 5466 5460 5451 5443 5434 5426 5421 5416 5411 5406 5402 5397 5394 5390 5387 5384 5382 5382 5381 5382 5383
5658 5650 5643 5634 5627 5619 5609 5600 5591 5580 5569 5558 5547 5535 5524 5514 5505 5495 5484 5475 5465 5455 5446 5439 5433 5426 5420 5413 5408 5403 5399 5395 5389 5386 5382 5378 5374 5372 5369 5368 5368 5368 5369
5646 5639 5630 5622 5612 5603 5593 5583 5571 5561 5549 5538 5527 5517 5508 5498 5488 5476 5465 5456 5447 5439 5432 5425 5419 5414 5408 5402 5396 5392 5390 5384 5378 5372 5369 5366 5363 5361 5358 5358 5356 5354 5354
5632 5624 5616 5607 5596 5586 5576 5566 5555 5543 5531 5520 5510 5500 5490 5480 5469 5458 5449 5441 5433 5426 5420 5414 5408 5403 5398 5393 5388 5382 5377 5374 5368 5362 5361 5355 5353 5351 5348 5346 5343 5341 5341
5618 5609 5600 5592 5582 5570 5559 5548 5537 5527 5514 5503 5494 5483 5472 5462 5453 5443 5434 5427 5421 5414 5409 5403 5398 5394 5389 5384 5379 5374 5368 5364 5359 5353 5352 5346 5345 5341 5336 5332 5331 5330 5329
5605 5594 5585 5576 5565 5554 5542 5531 5519 5508 5498 5488 5478 5469 5459 5447 5437 5429 5421 5414 5408 5403 5399 5394 5391 5386 5381 5376 5372 5365 5359 5354 5349 5346 5345 5340 5336 5329 5324 5322 5320 5319 5317
5588 5579 5569 5559 5549 5536 5525 5513 5502 5493 5483 5473 5463 5454 5444 5433 5424 5417 5410 5403 5397 5392 5389 5385 5382 5378 5373 5368 5363 5357 5351 5346 5340 5337 5336 5332 5327 5321 5316 5312 5310 5309 5307
5575 5566 5555 5544 5534 5521 5508 5496 5486 5478 5469 5459 5449 5439 5429 5420 5412 5405 5400 5394 5388 5383 5380 5377 5374 5370 5366 5361 5356 5351 5344 5339 5334 5330 5327 5325 5318 5313 5307 5303 5300 5299 5296
5560 5550 5539 5526 5515 5504 5492 5482 5472 5461 5454 5444 5436 5425 5416 5409 5401 5395 5390 5384 5379 5375 5372 5369 5366 5363 5359 5354 5348 5342 5337 5333 5327 5324 5318 5318 5310 5304 5302 5297 5291 5287 5288